Simultaneous Nadir Overpasses (SNOs) Predictions

Prediction of SNOs between GOES-16 and NOAA-20 Satellite Orbit:

Table of predicted SNOs for the next 14.0 days since TLE Epoch: 7/10/2020
Index Date Time (GOES-16) GOES-16 Lat,Lon NOAA-20 Lat,Lon Distance(km) Time Diff (sec)
1 07/12/2020 06:32:25 0.01, -75.21 0.30, -76.51 148.63 80
2 07/13/2020 06:11:00 0.01, -75.22 -0.69, -71.98 368.69 80
3 07/14/2020 18:32:56 -0.00, -75.24 -0.45, -77.29 233.76 80
4 07/15/2020 18:16:51 0.00, -75.25 0.54, -72.75 283.71 80
5 07/17/2020 06:38:38 -0.02, -75.26 0.63, -78.02 315.87 80
6 07/18/2020 06:17:14 -0.02, -75.27 -0.42, -73.50 201.71 80
7 07/19/2020 18:39:09 0.02, -75.29 -0.77, -78.80 400.42 80
8 07/20/2020 18:23:03 0.01, -75.30 0.22, -74.26 117.53 80
9 07/22/2020 06:44:51 -0.01, -75.32 0.95, -79.53 480.91 80
10 07/23/2020 06:23:26 -0.01, -75.33 -0.10, -75.01 37.35 80
